Showing default

ESSA 4 (TOS-B), 2657

Orbit data source: Space-Track

ESSA 4 (TOS-B), 2657 is a payload satellite owned by ESSA (US) in SSO that was launched on Thu, 26 Jan 1967 UTC via a THOR DELTA E launch vehicle from the Air Force Western Test Range (AFWTR). Payload-class satellites include a variety of spacecraft equipped with specific instruments for various scientific and technological missions. These include communications satellites like Starlink; space stations such as the ISS; scientific satellites like the Hubble; Earth observation satellites from companies like Planet Labs, Umbra, and HawkEye 360; GPS; miniature CubeSats for education and research; and military/defense satellites.

Loading next visibility...
Identifier
2657, 1967-006A
Orbit
SSO
Country
Flag of USUS
Related business
Manufacturer
RCA/East Windsor
Mission
Non-operational spacecraft
Bus & Motor
TIROS I, Unknown motor
Mass
132 kg wet, 132 kg dry
Launch date (UTC)
1967-01-26 (59 years ago)
Launch vehicle
THOR DELTA E
Launch site
Air Force Western Test Range (AFWTR)
Object type
Payload
Rocket body
Debris
Shape & HBR
Unknown
Radar Cross Section
Medium (>0.1 m² and <1 m²)

Expand to show TLE details & history
Last TLE update: 18 hours ago

TLE from 18 hours ago
0 ESSA 4 (TOS-B)
1 02657U 67006A   25310.47499963 -.00000050  00000-0 -52599-5 0  9993
2 02657 102.0869 132.9680 0073035 355.8226  59.5157 12.69886469724279
Epoch: 2025-11-06T11:23Z
TLE epoch observation values (Epoch: 2025-11-06T11:23:59.968Z)
Latitude
54.31525°
Longitude
-101.22388°
Altitude
1,362.687 km
Speed
7.195 km/s
True Right ascension
07h 42m 50s
True Declination
54° 09' 54"
Sunlit
Object was in daylight at epoch
Visualization orbit readout
Latitude
Unknown
Longitude
Unknown
Altitude
Unknown
Speed
Unknown
Apparent Right ascension
Unknown
Apparent Declination
Unknown
Sunlit
N/A
Visualization observer readout
Local Sidereal Time
01:00:30
Azimuth
Unknown
Elevation
Unknown
Doppler factor
Unknown
Orbital elements
Apogee altitude
1,436.604 km
Perigee altitude
1,323.282 km
Semi-major axis
7,758.08 km
Eccentricity
0.0073
Inclination
102.0869°
RAAN
132.968°
Arg. of periapsis
355.8226°
True anomaly
60.24027°
Mean anomaly
59.5157°
Eccentric anomaly
59.87765°
Mean motion
3.17623 °/min
Orbital period
113.34 mins
BSTAR
-0.0000052599
Loading maneuver chart data...
Computing Atmospheric mass density...
Loading historical data...
Loading historical data...
Loading historical data...
Loading historical data...
Loading historical data...
Loading historical data...
Loading historical data...
Other satellites on launch #6 in the year 1967 (1967-01-26 UTC)

Documentation

Showing up to 5 results
|